Location: Campoli del Monte Taburno
(41.1333°N, 14.6500°E)
Time: 07:15:54
(UTC+00:00)

Daily predictions for brighter satellites

Satellite Brightness Start Highest point End
(mag) Time Altitude Azimuth Time Altitude Azimuth Time Altitude Azimuth
Cosmos 1500 Rocket 3.8 18:31:24 10° SSE 18:35:30 45° E 18:39:38 10° NNE
CZ-4 R/B 4.2 18:33:07 10° SW 18:35:49 18° W 18:38:34 10° NW
Ariane Rocket 3.0 18:31:45 10° SSE 18:36:47 73° ENE 18:41:51 10° N
ARGOS 3.4 18:35:34 10° S 18:40:58 78° WSW 18:46:22 10° NNW
Cosmos 1992 Rocket 4.2 18:35:47 10° NNW 18:40:59 59° ENE 18:46:07 10° SSE
Resurs 1-3 4.5 18:37:18 10° SE 18:41:12 32° ENE 18:45:05 10° N
CZ-2C R/B 2.6 18:39:57 10° NNE 18:45:04 61° E 18:50:13 10° S
SL-8 R/B 4.2 18:41:02 10° WNW 18:45:46 53° NNE 18:50:30 10° E
Meteor 2-3 Rocket 4.2 18:40:06 10° SSW 18:45:52 69° W 18:51:41 10° N
USA 186 1.3 18:44:23 10° S 18:46:42 65° W 18:48:57 10° NNW
Cosmos 1328 Rocket 4.4 18:43:12 10° NNW 18:47:31 54° W 18:51:49 10° S
FREGAT/IRIS 2.3 18:48:06 10° S 18:50:43 82° WSW 18:53:22 10° NNW
Cosmos 2218 Rocket 4.1 18:45:57 10° S 18:52:09 88° WNW 18:58:19 10° N
Cosmos 405 4.4 18:51:57 10° NNW 18:55:13 39° W 18:58:27 10° SSW
H-2A R/B 3.3 18:50:43 10° S 18:55:37 42° W 19:00:27 10° NNW
Cosmos 1805 Rocket 4.1 18:54:30 10° SSE 18:58:37 39° E 19:02:46 10° NNE
Cosmos 1782 2.9 18:54:47 10° N 18:58:49 86° W 19:02:50 10° S
MOS 1 4.4 18:53:58 10° SSE 18:59:36 86° WSW 19:05:18 10° NNW
Cosmos 1980 Rocket 4.0 18:57:38 10° N 19:01:18 17° NE 19:04:56 10° E
DMSP B5D2-2 4.1 19:01:47 10° NNE 19:07:03 89° WNW 19:12:17 10° SSW
Cosmos 1140 Rocket 4.4 19:03:39 10° SSE 19:08:05 29° E 19:12:32 10° NE
SL-4 R/B 2.1 19:04:53 10° SSW 19:08:49 48° SE 19:12:29 10° ENE
ATLAS 5 CENTAUR R/B 2.6 19:04:22 10° NNW 19:10:09 64° NE 19:15:45 15° SE
MetOp-A 4.2 19:08:10 10° S 19:13:31 81° WSW 19:18:54 10° NNW
Cosmos 1833 Rocket 2.8 19:09:44 10° S 19:15:08 52° ESE 19:20:35 10° NNE
Cosmos 1697 Rocket 3.4 19:12:25 10° N 19:17:37 38° ENE 19:21:20 18° ESE
Cosmos 2228 Rocket 3.1 19:14:44 10° N 19:19:11 83° W 19:23:34 10° S
SPOT 3 Rocket 3.5 19:14:31 10° SSE 19:19:43 80° ENE 19:24:57 10° NNW
Cosmos 1633 Rocket 4.1 19:18:04 18° SE 19:20:18 27° E 19:24:01 10° NNE
Cosmos 389 Rocket 2.5 19:18:45 10° N 19:22:09 59° ENE 19:24:21 20° SSE
Cosmos 1867 4.3 19:17:50 10° S 19:22:27 29° ESE 19:27:06 10° NE
Cosmos 1812 2.8 19:20:18 10° N 19:24:05 55° E 19:26:34 20° SSE
Cosmos 1727 Rocket 4.1 19:18:00 10° N 19:24:23 81° W 19:30:43 10° S
Cosmos 1656 3.6 19:23:48 10° NNW 19:29:19 83° ENE 19:33:31 18° SSE
IRIDIUM 104 4.3 19:24:48 10° S 19:30:01 89° E 19:35:16 10° N
Resurs 01 Rocket 1.6 19:27:32 17° SSE 19:30:54 73° ENE 19:35:19 10° N
Cosmos 1707 Rocket 3.9 19:29:23 10° N 19:33:35 47° ENE 19:35:43 25° SE
Cosmos 220 Rocket 3.9 19:29:35 10° NNW 19:33:47 65° ENE 19:36:05 25° SE
Cosmos 972 Rocket 4.3 19:30:43 10° NNW 19:35:37 62° WSW 19:40:04 12° S
Cosmos 1441 Rocket 3.2 19:32:59 10° SSW 19:36:47 81° W 19:40:35 10° N
FALCON 9 DEB 3.1 19:33:32 10° SW 19:36:58 57° SE 19:40:24 10° ENE
Cosmos 1934 Rocket 4.3 19:31:55 13° SSE 19:37:19 49° E 19:43:25 10° NNE
IRIDIUM 114 4.5 19:33:58 10° S 19:39:10 76° W 19:44:25 10° N
Cosmos 614 Rocket 4.1 19:35:27 10° SSW 19:40:35 79° WNW 19:45:49 10° NNE
NOSS 3-2 (A) 3.9 19:36:58 12° S 19:41:31 32° ESE 19:46:53 10° NE
IGS 5A 4.0 19:41:07 29° ESE 19:42:36 40° ENE 19:46:30 10° N
SWAS 4.3 19:43:49 10° SSW 19:48:07 83° ESE 19:52:28 10° NNE
USA 267 3.5 19:41:53 10° NE 19:48:24 73° NW 19:54:55 10° WSW
Cosmos 1821 Rocket 4.1 19:44:24 10° S 19:50:31 78° W 19:56:45 10° N
GP-B 3.5 19:47:46 10° NNE 19:52:01 44° E 19:53:13 35° SE
COSMOS 2406 4.0 19:47:32 10° SW 19:53:09 54° WNW 19:58:47 10° NNE
Shenzhou-11 Module 2.3 19:53:37 10° WNW 19:55:30 48° NW 19:55:30 48° NW
Cosmos 921 Rocket 4.5 19:54:19 10° NNE 19:57:35 21° ENE 19:58:03 21° ENE
ERS-1 Rocket 3.8 19:56:08 28° ESE 19:57:37 34° ENE 20:02:08 10° N
Intercosmos 25 3.7 19:55:46 10° NNW 19:59:51 55° W 20:01:26 27° SSW
SL-16 R/B 4.2 19:56:41 10° NNE 19:59:59 15° NE 20:02:26 12° ENE
Cosmos 1862 Rocket 4.0 19:55:51 10° N 20:00:08 44° ENE 20:01:01 39° ESE
Lacrosse 5 4.0 19:58:59 10° NNW 20:02:31 18° NNE 20:06:02 10° ENE
Sich 1 3.8 19:58:38 10° SSW 20:02:56 53° W 20:07:19 10° N
Cosmos 2369 3.7 19:59:47 10° NNW 20:05:34 82° ENE 20:08:04 35° SSE
Cosmos 2082 Rocket 2.1 20:02:28 10° SSW 20:08:10 83° ESE 20:13:52 10° NNE
USA 245 4.5 20:04:34 28° SSE 20:08:13 84° ENE 20:14:39 10° N
Cosmos 1954 Rocket 4.0 20:06:50 25° S 20:09:53 65° ESE 20:15:10 10° NNE
Cosmos 1818 3.6 20:04:46 10° NW 20:10:15 78° WSW 20:12:24 38° SSE
Spot 2 Rocket 3.4 20:11:24 37° SSE 20:13:31 88° E 20:18:39 10° NNW
Cosmos 1535 Rocket 4.4 20:08:44 17° S 20:13:37 90° SSE 20:19:47 10° N
Cosmos 2278 3.8 20:09:09 10° NNW 20:14:51 65° ENE 20:16:44 41° SE
Cosmos 2123 Rocket 3.9 20:08:42 10° N 20:14:57 85° E 20:18:06 32° S
Meteor 2-20 4.5 20:10:33 10° N 20:16:43 81° W 20:20:08 28° S
CARTOSAT-1 3.7 20:20:05 51° E 20:20:26 52° ENE 20:24:39 10° N
Cosmos 1184 Rocket 3.1 20:21:02 64° N 20:21:02 64° N 20:23:52 10° N
Terra 2.6 20:21:08 34° E 20:21:35 35° ENE 20:25:53 10° N
USA 234 3.4 20:18:45 32° ESE 20:21:58 66° NE 20:28:26 10° NW
Meteor 1-4 Rocket 2.5 20:18:59 10° NNW 20:22:26 71° W 20:22:26 71° W
Cosmos 2322 Rocket 4.0 20:18:41 10° N 20:22:36 19° NE 20:24:25 16° ENE
Cosmos 1605 Rocket 3.8 20:21:08 34° S 20:23:57 73° E 20:30:02 10° N
Cosmos 1933 Rocket 3.8 20:24:16 50° E 20:24:16 50° E 20:28:21 10° NNE
Cosmos 1666 Rocket 4.5 20:21:27 16° SSW 20:24:34 45° WNW 20:28:45 10° N
Meteor 1-20 Rocket 4.2 20:23:25 37° S 20:25:49 75° E 20:31:40 10° NNE
Cosmos 1238 Rocket 3.9 20:28:02 26° NNE 20:28:02 26° NNE 20:29:28 10° NNE
SL-8 R/B 4.2 20:23:42 10° WNW 20:28:17 44° SW 20:28:49 42° SSW
Okean 1 4.1 20:28:13 10° N 20:31:27 39° NE 20:31:27 39° NE
SPOT 5 2.6 20:35:54 65° ENE 20:35:54 65° ENE 20:40:12 10° N
Cosmos 2360 Rocket 4.3 20:33:47 10° NNE 20:36:33 14° NE 20:38:35 12° ENE
Cosmos 1437 Rocket 4.3 20:33:12 10° NNE 20:35:27 24° NE 20:35:27 24° NE
USA 238 DEB 3.5 20:30:30 10° SSW 20:37:05 82° ESE 20:43:57 10° NE
USA 238 3.5 20:30:37 10° SSW 20:37:11 81° ESE 20:44:03 10° NE
BREEZE-M DEB (TANK) 4.4 20:38:13 10° W 20:39:00 11° WSW 20:39:00 11° WSW
SPOT 1/Viking Rocket 3.8 20:39:53 43° SSW 20:41:25 63° WSW 20:46:38 10° NNW
Meteor 1-19 Rocket 4.3 20:36:27 10° N 20:41:46 53° ENE 20:42:13 52° E
Cosmos 1980 Rocket 2.1 20:40:19 10° NNW 20:46:00 80° WSW 20:47:05 59° S
Meteor 1-14 Rocket 4.2 20:46:52 59° SE 20:47:34 65° E 20:53:26 10° NNE
Cosmos 1703 Rocket 4.2 20:43:35 10° N 20:47:05 44° NE 20:47:05 44° NE
Cosmos 2242 Rocket 3.7 20:43:25 10° N 20:47:29 66° NE 20:47:29 66° NE
Cosmos 405 Rocket 3.5 20:49:22 45° N 20:49:22 45° N 20:52:02 10° N
SL-4 R/B 3.6 20:45:00 10° W 20:48:31 31° NNW 20:51:35 11° NE
BREEZE-M DEB (TANK) 4.5 20:47:28 10° WNW 20:50:41 34° NNE 20:59:22 10° ENE
Cosmos 1763 Rocket 4.0 20:45:49 10° N 20:50:55 44° ENE 20:51:08 44° ENE
Genesis I 3.8 20:47:38 10° NNW 20:50:44 55° NNW 20:50:44 55° NNW
ATLAS 5 CENTAUR R/B 4.1 20:49:45 10° WNW 20:54:37 25° WSW 20:57:18 19° SW
Cosmos 1459 Rocket 4.2 20:58:06 49° E 20:58:17 50° E 21:04:22 10° NNE
Cosmos 1697 Rocket 4.0 20:56:35 10° NW 21:01:26 31° WSW 21:03:04 26° SW
Cosmos 1153 Rocket 4.4 21:03:25 56° SSW 21:04:49 84° W 21:11:01 10° N
CENTAUR R/B 2.3 21:04:45 66° S 21:05:33 77° ESE 21:12:23 10° NE
Meteor 1-18 Rocket 4.1 21:03:48 10° NNW 21:09:24 78° W 21:09:50 73° SW
Okean 1-7 3.7 21:05:10 10° N 21:08:30 51° N 21:08:30 51° N
NOSS 3-3 (A) 4.5 21:04:31 10° NW 21:12:11 83° NE 21:14:19 55° SE
NOSS 3-3 (C) 4.5 21:04:37 10° NNW 21:12:17 83° NE 21:14:26 55° SE
Cosmos 1802 Rocket 4.2 21:13:52 54° E 21:13:52 54° E 21:20:02 10° NNE
Cosmos 1850 Rocket 3.9 21:14:18 84° NNW 21:14:18 84° NNW 21:19:30 10° NNE
Meteor 2-4 Rocket 3.7 21:13:29 10° N 21:18:53 68° ENE 21:18:53 68° ENE
ATLAS 5 CENTAUR R/B 3.7 21:20:24 10° NNW 21:23:25 31° NE 21:23:25 31° NE
NOSS 3-2 (A) 4.4 21:26:41 10° WSW 21:32:06 43° NW 21:38:15 10° NNE
ERS-1 Rocket 4.4 21:36:09 27° W 21:36:25 28° W 21:40:42 10° NW
NOSS 3-2 (C) 3.7 21:35:51 40° WSW 21:37:47 60° NW 21:44:09 10° NNE
Cosmos 841 Rocket 4.0 21:37:44 10° NNW 21:42:00 55° NNE 21:42:00 55° NNE
Cosmos 540 Rocket 4.0 21:39:14 10° NNW 21:43:22 53° NNE 21:43:22 53° NNE
SL-16 R/B 2.3 21:39:12 10° NNW 21:44:17 72° NNW 21:44:17 72° NNW
Lacrosse 5 2.6 21:41:22 10° NW 21:45:31 51° N 21:45:31 51° N
Cosmos 1570 Rocket 4.5 21:48:53 10° NNW 21:53:10 59° NNW 21:53:10 59° NNW
Tsikada Rocket 4.3 21:49:04 10° N 21:54:55 58° ENE 21:54:55 58° ENE
Cosmos 2219 Rocket 4.0 21:51:42 10° N 21:55:50 20° NE 21:56:37 20° ENE
Terra 3.6 22:00:02 24° W 22:00:02 24° W 22:03:14 10° NW
USA 234 4.2 22:06:06 35° WSW 22:06:06 35° WSW 22:11:08 10° WNW
Cosmos 2322 Rocket 2.6 22:01:34 10° NNW 22:06:13 58° NW 22:06:13 58° NW
Meteor 1-11 Rocket 4.1 22:09:09 62° NNW 22:09:09 62° NNW 22:13:59 10° N
ATLAS 3B R/B 2.6 22:21:12 76° NNE 22:21:12 76° NNE 22:27:18 10° NNE
Cosmos 2360 Rocket 2.7 22:15:49 10° NNW 22:20:20 57° N 22:20:20 57° N
COSMOS 2428 4.2 22:17:33 10° N 22:22:26 28° NE 22:22:37 28° ENE
ALOS 2 4.4 22:27:44 30° N 22:27:44 30° N 22:29:59 10° N
Cosmos 1725 Rocket 4.3 22:27:19 60° WNW 22:27:19 60° WNW 22:33:18 10° N
Cosmos 2333 Rocket 3.1 22:36:28 10° NNW 22:41:19 45° NE 22:41:19 45° NE
Lacrosse 4 Rocket 3.9 22:45:24 19° NNE 22:45:24 19° NNE 22:46:39 10° NNE
Cosmos 2237 Rocket 4.3 22:42:11 10° N 22:45:55 18° NE 22:47:32 16° ENE
CENTAUR R/B 4.4 22:51:55 10° W 22:57:04 26° NW 23:02:56 10° NNE
Cosmos 1464 Rocket 4.3 23:15:36 63° NNE 23:15:36 63° NNE 23:20:49 10° N
Cosmos 2227 Rocket 4.0 23:22:42 21° ENE 23:22:42 21° ENE 23:25:31 10° NE
Nadezhda 4 Rocket 4.2 23:32:28 10° N 23:38:04 67° NNE 23:38:04 67° NNE
Cosmos 2219 Rocket 3.2 23:34:39 10° NNW 23:38:19 40° NW 23:38:19 40° NW
Cosmos 2034 Rocket 4.1 23:43:53 70° N 23:43:53 70° N 23:49:25 10° N
SL-16 R/B 3.8 23:46:15 28° E 23:47:59 33° ENE 23:53:28 10° N
Cosmos 1092 Rocket 4.3 23:46:50 10° N 23:52:45 59° ENE 23:52:45 59° ENE
